Presure
181 209 206 241 222 228 244 257 244 254 255 259 273 265 260 260 253 242 233 238 245 241 237 237 244 250 266
238 238 238 209 207 246 248 250 254 255 240 252 274 255 259 254 245 241 238 239 241 235 242 237 235 247 239
204 210 210 267 233 239 253 254 249 238 253 268 264 261 258 251 241 242 238 235 235 230 231 235 236 242 245
236 246 264 237 239 256 253 253 242 255 258 253 261 255 248 242 241 233 231 227 228 233 232 240 256 248 246
267 260 261 262 248 247 251 233 258 263 250 279 255 250 242 238 231 225 221 234 235 242 250 250 246 246 245
272 258 265 246 243 255 235 272 259 254 273 258 245 240 233 229 220 230 225 232 236 255 254 254 257 273 284
260 257 252 243 253 246 266 258 251 275 251 243 237 229 223 233 227 227 230 231 240 255 269 299 301 296 291
251 239 251 244 245 272 248 253 247 237 242 232 226 222 231 225 228 229 228 234 253 291 304 291 267 261 265
244 243 235 266 258 253 252 243 241 238 229 225 222 229 222 223 224 223 233 254 306 297 286 253 261 291 312
235 235 269 254 275 252 248 243 237 228 225 220 225 218 221 219 220 231 246 306 307 285 250 262 297 307 288
266 256 257 254 251 251 241 238 225 223 221 223 216 217 217 218 228 238 256 305 256 251 279 301 301 276 319
251 257 255 249 240 238 240 231 216 218 219 219 217 215 218 224 234 248 291 276 253 294 287 295 306 291 281
243 240 243 244 239 237 228 214 219 214 217 221 216 217 220 229 242 261 297 248 272 283 294 284 277 281 282
237 232 231 231 231 224 213 214 218 215 219 217 217 219 227 237 248 274 262 259 294 283 279 270 275 288 283
235 233 225 227 230 223 215 217 218 223 217 217 219 226 235 247 263 275 259 293 291 275 269 275 282 296 347
235 235 217 218 228 221 219 223 219 218 217 219 225 232 240 258 276 290 290 274 280 270 269 277 288 290 370
232 237 217 216 214 222 215 217 219 216 220 224 230 238 250 279 302 290 279 295 269 272 278 290 341 353 344
Wind_Speed
98 114 110 113 110 102 93 79 87 77 74 73 69 55 51 47 44 44 45 43 39 37 36 36 32 29 25
116 112 113 108 102 92 87 80 73 73 76 75 57 53 49 46 44 44 45 43 41 40 39 37 38 34 30
108 109 100 78 100 95 75 74 75 77 75 60 55 50 46 46 45 44 44 44 44 43 42 41 40 38 36
112 102 80 89 94 71 73 72 75 74 61 58 52 48 48 47 45 45 46 47 48 47 47 46 44 42 41
77 79 72 71 75 74 70 77 73 61 60 47 47 47 47 47 48 48 50 52 52 52 51 49 48 47 48
63 69 61 76 77 70 74 67 60 58 47 46 48 48 49 49 52 53 54 55 56 58 56 56 56 56 52
64 62 66 72 68 70 66 58 57 46 47 48 49 51 53 53 54 57 58 59 62 62 60 54 50 48 46
59 71 66 68 70 58 57 54 52 54 48 51 54 56 55 56 59 62 63 66 68 61 52 49 47 47 50
63 65 68 63 56 55 52 52 51 48 52 54 57 56 58 61 63 66 71 72 59 55 53 51 54 62 59
67 67 56 54 43 48 48 48 50 51 53 56 56 59 62 64 68 73 73 61 55 54 56 60 63 60 55
56 52 50 47 46 45 48 50 52 53 54 56 58 61 64 69 72 74 73 57 61 62 65 61 60 56 58
49 47 44 44 48 49 49 52 55 56 57 58 61 64 68 71 74 75 67 61 64 65 62 60 59 56 54
49 49 47 44 48 49 50 55 56 58 60 62 64 68 71 74 77 77 61 63 67 65 62 60 59 57 56
49 52 50 50 51 52 55 58 59 61 62 64 67 70 73 75 78 72 68 70 63 62 61 60 60 61 60
51 52 52 53 53 54 57 59 61 62 64 66 69 72 75 78 79 71 71 62 61 61 60 62 62 61 60
54 55 54 55 55 55 57 59 62 64 67 69 71 74 77 81 75 70 65 63 61 61 60 60 64 61 48
55 57 55 54 55 56 59 61 63 66 68 70 74 77 80 77 71 66 65 63 59 61 60 60 56 51 48
Wind_Direction
300 300 301 301 305 306 306 306 308 307 309 311 313 308 308 305 304 301 301 303 304 302 300 302 305 303 299
296 297 299 305 306 304 305 303 305 305 309 311 308 306 305 303 301 302 300 302 304 301 303 298 296 295 285
299 300 301 301 303 303 301 304 304 307 308 308 308 306 303 302 302 301 302 302 300 296 294 292 288 285 282
296 295 296 299 300 298 301 300 305 307 306 307 307 303 302 302 304 304 302 300 298 297 293 293 292 283 277
292 294 294 296 295 298 298 303 305 305 306 304 303 304 304 304 303 302 300 302 301 301 298 294 288 283 277
289 290 292 292 296 297 301 305 303 303 303 303 302 303 303 304 303 305 302 304 305 305 300 295 290 287 283
289 288 289 292 295 297 302 301 302 301 302 301 302 303 303 306 304 303 306 307 307 305 300 297 293 291 287
288 289 289 293 296 299 297 298 300 301 301 301 302 303 306 305 308 309 308 309 308 307 301 299 296 289 285
285 287 293 295 294 296 297 298 297 299 300 302 303 306 306 308 310 309 310 311 309 305 302 297 299 298 294
288 291 292 293 294 295 294 294 296 298 300 301 305 304 308 309 309 310 313 313 307 305 302 303 300 299 295
291 291 293 292 293 293 293 294 296 298 300 303 304 307 308 308 309 311 314 309 308 307 305 302 300 298 303
291 293 291 291 291 293 295 295 297 300 302 304 305 306 307 307 310 313 313 308 309 308 305 302 304 301 298
290 290 292 294 294 295 295 297 299 300 303 305 305 305 307 310 312 315 310 309 310 307 305 304 304 303 300
287 287 290 292 293 294 297 298 300 301 302 303 304 305 308 311 314 312 311 310 307 305 305 304 303 303 302
286 286 288 290 292 293 296 298 300 301 302 303 305 307 311 312 313 310 310 308 308 305 305 305 304 303 302
286 287 285 290 293 296 297 299 299 300 302 304 307 309 311 312 310 308 308 307 306 306 306 306 304 303 298
286 287 287 292 294 297 296 298 299 301 303 305 308 309 311 310 308 309 308 308 307 305 306 306 304 300 300